{"data":{"norad_id":57696,"intl_designator":"2023-127A","name":"JILIN-1 KUANFU 02A","alt_names":[],"object_type":"PAYLOAD","status":"ACTIVE","operator":null,"country":"PRC","launch_date":"2023-08-25","launch_site_code":"JSC","launch_vehicle":null,"mission":null,"orbit_class":"UNKNOWN","rcs_meters":null,"size_class":null,"mass_kg":null,"dimensions":null,"purposes":[],"wikipedia_slug":null,"has_3d_model":false,"image_url":null,"decayed_at":null,"tle_current":{"epoch":"2026-05-25T05:08:56.222304Z","epoch_age_seconds":60064,"freshness":"FRESH","line1":"1 57696U 23127A   26145.21453961  .00004667  00000+0  28760-3 0  9995","line2":"2 57696  97.5547 239.3324 0012680  62.1517 298.0995 15.10386838152167","mean_motion":15.10386838,"eccentricity":0.001268,"inclination_deg":97.5547,"raan_deg":239.3324,"arg_perigee_deg":62.1517,"mean_anomaly_deg":298.0995,"bstar":0.0002876,"rev_number":15216,"period_min":95.339813865618,"perigee_km":526.2534773575,"apogee_km":543.7852418855,"semimajor_km":6913.1563596215,"source":"CELESTRAK","updated_at":"2026-05-25T13:38:00.190555Z"}}}